Tracking 19219 objects as of 22-Jul-2018
HD Live streaming from Space Station
objects crossing your sky now

FENGYUN 1C DEB

Track FENGYUN 1C DEB now!
10-day predictions


NORAD ID: 29740
Int'l Code: 1999-025AE
Perigee: 865.8 km
Apogee: 2,485.5 km
Inclination: 99.1 °
Period: 119.7 minutes
Semi major axis: 8046 km
RCS: 0.0682 m2 (small)
Launch date: May 10, 1999
Source: People's Republic of China (PRC)
Launch site: Taiyaun Space Center, China (TSC)

Note: This is SATELLITE DEBRIS
aabbcc
Your satellite tracking list
Your tracking list is empty




NASA's NSSDC Master Catalog

Two Line Element Set (TLE):
1 29740U 99025AE  18202.60195221 +.00000319 +00000-0 +88945-3 0  9996
2 29740 099.0519 078.7918 1006425 151.4925 214.5177 12.02758048504128
Source of the keplerian elements: AFSPC